STARLINK-11607, 63140

Orbit data source: Space-Track

STARLINK-11607, 63140 is a payload satellite owned by SpaceX/Seattle (US) in LEO that was launched on Mon, 03 Mar 2025 UTC via an FALCON 9 launch vehicle from the Air Force Eastern Test Range (AFETR). Payload-class satellites include a variety of spacecraft equipped with specific instruments for various scientific and technological missions. These include communications satellites like Starlink; space stations such as the ISS; scientific satellites like the Hubble; Earth observation satellites from companies like Planet Labs, Umbra, and HawkEye 360; GPS; miniature CubeSats for education and research; and military/defense satellites.

Loading next visibility...
Identifier
63140, 2025-043J
Orbit
LEO
Country
Flag of USUS
Related business
Manufacturer
SpaceX/Seattle
Mission
Operational Commercial Communications
Bus & Motor
STARLINK V2MD, Unknown motor
Mass
960 kg wet, ~910 kg dry
Launch date (UTC)
2025-03-03 (6 months ago)
Launch vehicle
FALCON 9
Launch site
Air Force Eastern Test Range (AFETR)
Object type
Payload
Rocket body
Debris
Shape & HBR
Box + 2 Pan, 14.5 m
Radar Cross Section
36.964 m², Large (>1 m²)

Expand to show TLE details & history
Last TLE update: 13 hours ago

TLE from 13 hours ago
0 STARLINK-11607
1 63140U 25043J   25258.38172911  .00433402  00000-0  31941-2 0  9998
2 63140  43.0009 227.1533 0001249 282.3810  77.6918 15.70943385 31901
Epoch: 2025-09-15T09:09Z
TLE epoch observation values (Epoch: 2025-09-15T09:09:41.395Z)
Latitude
0.00001°
Longitude
95.14364°
Altitude
355.792 km
Speed
7.698 km/s
True Right ascension
15h 08m 36s
True Declination
0° 00' 00"
Sunlit
Object was in daylight at epoch
Visualization orbit readout
Latitude
Unknown
Longitude
Unknown
Altitude
Unknown
Speed
Unknown
Apparent Right ascension
Unknown
Apparent Declination
Unknown
Sunlit
N/A
Visualization observer readout
Local Sidereal Time
14:41:39
Azimuth
Unknown
Elevation
Unknown
Doppler factor
Unknown
Orbital elements
Apogee altitude
359.022 km
Perigee altitude
357.34 km
Semi-major axis
6,736.318 km
Eccentricity
0.00012
Inclination
43.0009°
RAAN
227.1533°
Arg. of periapsis
282.381°
True anomaly
77.70578°
Mean anomaly
77.6918°
Eccentric anomaly
77.69879°
Mean motion
3.92563 °/min
Orbital period
91.71 mins
BSTAR
0.0031941
Loading maneuver chart data...
Computing Atmospheric mass density...
Loading historical data...
Loading historical data...
Loading historical data...
Loading historical data...
Loading historical data...
Loading historical data...
Loading historical data...

Documentation

Showing up to 5 results
|